STARLINK-36798, 67798

Orbit data source: Space-Track

STARLINK-36798, 67798 is a payload satellite owned by SpaceX/Seattle (US) in SSO that was launched on Sun, 15 Feb 2026 UTC via an FALCON 9 launch vehicle from the Air Force Western Test Range (AFWTR). Payload-class satellites include a variety of spacecraft equipped with specific instruments for various scientific and technological missions. These include communications satellites like Starlink; space stations such as the ISS; scientific satellites like the Hubble; Earth observation satellites from companies like Planet Labs, Umbra, and HawkEye 360; GPS; miniature CubeSats for education and research; and military/defense satellites.

Loading next visibility...
Identifier
67798, 2026-032B
Orbit
SSO
Country
Flag of USUS
Related business
Manufacturer
SpaceX/Seattle
Mission
Operational Commercial Communications
Bus & Motor
STARLINK V2MO, Unknown motor
Mass
575 kg wet, ~530 kg dry
Launch date (UTC)
2026-02-15 (4 months ago)
Launch vehicle
FALCON 9
Launch site
Air Force Western Test Range (AFWTR)
Object type
Payload
Rocket body
Debris
Shape & HBR
Box + 2 Pan, 17.7 m
Radar Cross Section
36.964 m², Large (>1 m²)

Expand to show TLE details & history
Last TLE update: 1 day ago

TLE from 1 day ago
0 STARLINK-36798
1 67798U 26032B   26170.51642773  .00014448  00000-0  44888-3 0  9997
2 67798  97.2864 358.2104 0001913  96.9726 263.1735 15.33452752 20568
Epoch: 2026-06-19T12:23Z
TLE epoch observation values (Epoch: 2026-06-19T12:23:39.355Z)
Latitude
0.00001°
Longitude
-95.44786°
Altitude
468.788 km
Speed
7.632 km/s
True Right ascension
23h 52m 50s
True Declination
0° 00' 00"
Sunlit
Object was in daylight at epoch
Visualization orbit readout
Latitude
Unknown
Longitude
Unknown
Altitude
Unknown
Speed
Unknown
Apparent Right ascension
Unknown
Apparent Declination
Unknown
Sunlit
N/A
Visualization observer readout
Local Sidereal Time
08:32:49
Azimuth
Unknown
Elevation
Unknown
Doppler factor
Unknown
Orbital elements
Apogee altitude
463.772 km
Perigee altitude
461.154 km
Semi-major axis
6,840.6 km
Eccentricity
0.00019
Inclination
97.2864°
RAAN
358.2104°
Arg. of periapsis
96.9726°
True anomaly
263.15173°
Mean anomaly
263.1735°
Eccentric anomaly
263.16262°
Mean motion
3.83621 °/min
Orbital period
93.84 mins
BSTAR
0.00044888
Loading maneuver chart data...
Computing Atmospheric mass density...
Loading historical data...
Loading historical data...
Loading historical data...
Loading historical data...
Loading historical data...
Loading historical data...
Loading historical data...

Documentation

Showing up to 5 results
|